FW9782 Weather Reports


time (UTC)temp
C
wind
direction
speed
KPH
gust
KPH
rain 1hr
cm
rain 24hr
cm
rain mn
cm
humidity
%
barometer
mb
20260504120133 11 202 3.2 3.2 0.00 0.00 0.00 57 1008.4
20260504110601 5 349 0.0 1.6 0.00 0.00 0.00 83 1008.7
20260504100522 5 4 1.6 1.6 0.00 0.00 0.00 82 1008.6
20260504081916 7 324 1.6 1.6 0.00 0.00 0.00 71 1008.8
20260504081413 7 324 0.0 1.6 0.00 0.00 0.00 70 1008.9
20260504080908 7 324 1.6 1.6 0.00 0.00 0.00 71 1008.9
20260504080406 7 324 1.6 1.6 0.00 0.00 0.00 73 1008.9
20260504070333 7 324 0.0 0.0 0.00 0.00 0.00 71 1009.2
20260504050721 7 339 0.0 1.6 0.00 0.00 0.00 75 1009.2
20260504050218 7 340 0.0 0.0 0.00 0.00 0.00 74 1009.6
20260504045715 7 36 0.0 1.6 0.00 0.00 0.00 80 1009.6
20260504045215 7 312 0.0 0.0 0.00 0.00 0.00 77 1009.7
20260504044714 7 326 0.0 0.0 0.00 0.00 0.00 79 1009.6
20260504044211 7 325 0.0 0.0 0.00 0.00 0.00 81 1009.7
20260504043708 7 325 0.0 0.0 0.00 0.00 0.00 79 1009.5
20260504043204 7 325 0.0 0.0 0.00 0.00 0.00 79 1009.9
20260504042702 7 326 0.0 0.0 0.00 0.00 0.00 82 1009.7
20260504042158 6 326 0.0 0.0 0.00 0.00 0.00 77 1009.7
20260504041654 6 325 0.0 0.0 0.00 0.00 0.00 78 1009.7
20260504041150 6 325 0.0 0.0 0.00 0.00 0.00 81 1009.7
20260504040647 6 325 0.0 0.0 0.00 0.00 0.00 81 1009.6
20260504040144 6 326 0.0 0.0 0.00 0.00 0.00 78 1009.7
20260504035641 6 305 1.6 1.6 0.00 0.00 0.00 78 1009.7
20260504035138 6 308 0.0 0.0 0.00 0.00 0.00 78 1009.6
20260504034635 6 327 0.0 1.6 0.00 0.00 0.00 74 1009.2
20260504034132 6 341 0.0 0.0 0.00 0.00 0.00 76 1009.3
20260504033630 6 341 0.0 0.0 0.00 0.00 0.00 76 1009.6
20260504033127 6 341 0.0 0.0 0.00 0.00 0.00 77 1009.4
20260504032624 6 341 0.0 0.0 0.00 0.00 0.00 77 1009.4
20260504032121 6 341 0.0 1.6 0.00 0.00 0.00 78 1009.5
20260504031618 6 341 0.0 0.0 0.00 0.00 0.00 78 1009.4
20260504031114 6 341 0.0 0.0 0.00 0.00 0.00 79 1009.2
20260504030611 6 341 0.0 0.0 0.00 0.00 0.00 75 1009.4
20260504030108 6 341 0.0 0.0 0.00 0.00 0.00 74 1009.4
20260504025605 6 341 0.0 0.0 0.00 0.00 0.00 70 1009.6
20260504025102 6 341 0.0 0.0 0.00 0.00 0.00 69 1009.3
20260504024559 6 341 0.0 0.0 0.00 0.00 0.00 67 1009.4
20260504024055 6 341 0.0 0.0 0.00 0.00 0.00 66 1009.4
20260504023552 6 341 0.0 0.0 0.00 0.00 0.00 66 1009.4
20260504023048 6 341 0.0 0.0 0.00 0.00 0.00 64 1009.4
20260504022544 6 341 1.6 1.6 0.00 0.00 0.00 67 1009.4
20260504022040 6 341 1.6 1.6 0.00 0.00 0.00 65 1009.1
20260504021538 6 341 1.6 1.6 0.00 0.00 0.00 69 1009.3
20260504021035 6 341 0.0 0.0 0.00 0.00 0.00 67 1009.2
20260504020532 6 342 1.6 1.6 0.00 0.00 0.00 66 1009.4
20260504020028 6 341 0.0 0.0 0.00 0.00 0.00 69 1009.4
20260504015524 6 341 1.6 1.6 0.00 0.00 0.00 69 1009.5
20260504015020 6 341 1.6 1.6 0.00 0.00 0.00 65 1009.5
20260504014517 6 341 0.0 0.0 0.00 0.00 0.00 64 1009.3
20260504014014 6 331 0.0 0.0 0.00 0.00 0.00 60 1009.3
20260504013512 6 354 1.6 1.6 0.00 0.00 0.00 60 1009.2
20260504013009 6 340 1.6 1.6 0.00 0.00 0.00 57 1009.1
20260504012506 7 343 1.6 1.6 0.00 0.00 0.00 58 1009.1
20260504012004 7 311 1.6 1.6 0.00 0.00 0.00 59 1009.1
20260504011500 7 327 0.0 0.0 0.00 0.00 0.00 55 1009.0
20260504010956 7 339 0.0 0.0 0.00 0.00 0.00 58 1008.9
20260504010452 7 338 1.6 1.6 0.00 0.00 0.00 57 1008.9
20260504005948 7 346 0.0 0.0 0.00 0.00 0.00 58 1008.9
20260504005445 7 358 1.6 1.6 0.00 0.00 0.00 62 1008.5
20260504004943 7 351 1.6 1.6 0.00 0.00 0.00 54 1008.5
20260504004440 7 346 1.6 1.6 0.00 0.00 0.00 52 1008.7
20260504003937 8 329 1.6 1.6 0.00 0.00 0.00 51 1008.5
20260504003433 8 347 0.0 0.0 0.00 0.00 0.00 43 1008.4
20260504002930 8 5 1.6 1.6 0.00 0.00 0.00 45 1008.4
20260504002427 8 345 1.6 1.6 0.00 0.00 0.00 44 1008.4
20260504001924 9 343 1.6 1.6 0.00 0.00 0.00 44 1008.3
20260504001422 10 321 0.0 0.0 0.00 0.00 0.00 41 1007.9
20260504000918 10 328 0.0 1.6 0.00 0.00 0.00 41 1007.8
20260504000416 10 350 0.0 0.0 0.00 0.00 0.00 38 1008.0
20260503235913 10 359 3.2 3.2 0.00 0.00 0.00 40 1007.6
20260503235411 10 295 0.0 1.6 0.00 0.00 0.00 39 1007.4
20260503234908 10 312 0.0 1.6 0.00 0.00 0.00 42 1007.6
20260503234405 10 306 1.6 1.6 0.00 0.00 0.00 39 1007.4
20260503233903 9 31 3.2 3.2 0.00 0.00 0.00 44 1007.1
20260503233359 10 348 0.0 0.0 0.00 0.00 0.00 49 1007.1
20260503232855 10 348 0.0 1.6 0.00 0.00 0.00 43 1007.0
20260503232353 10 345 0.0 0.0 0.00 0.00 0.00 47 1007.0
20260503231851 10 31 3.2 3.2 0.00 0.00 0.00 48 1006.9
20260503231347 11 286 3.2 3.2 0.00 0.00 0.00 36 1006.9
20260503230844 11 333 1.6 1.6 0.00 0.00 0.00 38 1006.9
20260503230340 11 328 0.0 1.6 0.00 0.00 0.00 39 1007.0
20260503225838 11 20 1.6 1.6 0.00 0.00 0.00 40 1006.7
20260503225334 11 340 1.6 1.6 0.00 0.00 0.00 37 1006.8
20260503224831 11 356 1.6 1.6 0.00 0.00 0.00 38 1006.6
20260503224328 11 228 3.2 3.2 0.00 0.00 0.00 34 1006.7
20260503223826 11 7 1.6 3.2 0.00 0.00 0.00 33 1006.5
20260503223323 11 258 3.2 3.2 0.00 0.00 0.00 35 1006.9
20260503222818 11 282 1.6 1.6 0.00 0.00 0.00 36 1006.7
20260503222317 12 130 1.6 1.6 0.00 0.00 0.00 34 1006.9
20260503221815 12 292 1.6 3.2 0.00 0.00 0.00 34 1006.7
20260503221314 12 337 1.6 1.6 0.00 0.00 0.00 35 1006.8
20260503220809 12 293 1.6 3.2 0.00 0.00 0.00 39 1006.7
20260503220306 11 226 1.6 1.6 0.00 0.00 0.00 35 1006.6
20260503215803 11 349 1.6 1.6 0.00 0.00 0.00 35 1006.9
20260503215259 11 3 3.2 3.2 0.00 0.00 0.00 35 1006.8
20260503214758 12 278 0.0 1.6 0.00 0.00 0.00 36 1006.9
20260503214254 12 167 1.6 3.2 0.00 0.00 0.00 36 1006.9
20260503213752 12 262 4.8 8.0 0.00 0.00 0.00 34 1006.8
20260503213249 12 144 8.0 9.7 0.00 0.00 0.00 37 1006.8
20260503212746 12 348 4.8 4.8 0.00 0.00 0.00 37 1007.0
20260503212244 12 280 1.6 3.2 0.00 0.00 0.00 38 1006.8
20260503211741 12 179 3.2 4.8 0.00 0.00 0.00 39 1006.8
20260503211238 12 289 8.0 9.7 0.00 0.00 0.00 38 1006.9
20260503210733 12 294 3.2 3.2 0.00 0.00 0.00 37 1007.1
20260503210231 12 140 8.0 12.9 0.00 0.00 0.00 37 1006.9
20260503205726 11 306 1.6 1.6 0.00 0.00 0.00 38 1007.0
20260503205222 11 21 4.8 8.0 0.00 0.00 0.00 37 1007.1
20260503204719 11 118 4.8 4.8 0.00 0.00 0.00 40 1007.2
20260503204217 11 308 0.0 0.0 0.00 0.00 0.00 41 1007.1
20260503203713 11 70 3.2 8.0 0.00 0.00 0.00 40 1007.1
20260503203211 11 285 1.6 1.6 0.00 0.00 0.00 41 1007.4
20260503202708 11 28 1.6 3.2 0.00 0.00 0.00 39 1007.2
20260503202206 11 140 4.8 4.8 0.00 0.00 0.00 39 1007.3
20260503201704 11 271 3.2 4.8 0.00 0.00 0.00 40 1007.3
20260503201201 11 257 3.2 3.2 0.00 0.00 0.00 41 1007.3
20260503200657 11 195 4.8 4.8 0.00 0.00 0.00 40 1007.5
20260503200154 11 344 3.2 3.2 0.00 0.00 0.00 39 1007.3
20260503195650 11 225 3.2 3.2 0.00 0.00 0.00 44 1007.6
20260503195147 11 83 3.2 3.2 0.00 0.00 0.00 41 1007.6
20260503194644 11 328 0.0 0.0 0.00 0.00 0.00 43 1007.7
20260503194140 11 327 3.2 3.2 0.00 0.00 0.00 42 1007.6
20260503193637 10 93 4.8 8.0 0.00 0.00 0.00 41 1007.6
20260503193132 11 152 4.8 4.8 0.00 0.00 0.00 42 1007.9
20260503192628 10 289 3.2 4.8 0.00 0.00 0.00 43 1008.0
20260503192124 11 114 1.6 4.8 0.00 0.00 0.00 43 1008.2
20260503191621 11 294 3.2 3.2 0.00 0.00 0.00 41 1007.9
20260503191118 10 311 0.0 1.6 0.00 0.00 0.00 43 1008.2
20260503190615 10 231 4.8 8.0 0.00 0.00 0.00 41 1008.2
20260503190112 10 275 0.0 1.6 0.00 0.00 0.00 43 1008.3
20260503185608 10 280 4.8 8.0 0.00 0.00 0.00 41 1008.0
20260503185108 10 52 4.8 4.8 0.00 0.00 0.00 41 1008.4
20260503184604 10 139 4.8 8.0 0.00 0.00 0.00 41 1008.3
20260503184101 10 326 3.2 3.2 0.00 0.00 0.00 42 1008.5
20260503183557 10 324 1.6 1.6 0.00 0.00 0.00 43 1008.3
20260503183055 10 220 1.6 3.2 0.00 0.00 0.00 44 1008.5
20260503182553 10 159 3.2 3.2 0.00 0.00 0.00 43 1008.3
20260503182051 10 225 6.4 11.3 0.00 0.00 0.00 43 1008.6
20260503181547 10 277 4.8 4.8 0.00 0.00 0.00 42 1008.5
20260503181044 10 305 1.6 1.6 0.00 0.00 0.00 43 1008.6
20260503180541 10 2 1.6 1.6 0.00 0.00 0.00 45 1008.5
20260503180038 10 22 6.4 8.0 0.00 0.00 0.00 41 1008.6
20260503175536 10 326 1.6 1.6 0.00 0.00 0.00 46 1008.8
20260503175033 10 274 3.2 4.8 0.00 0.00 0.00 42 1008.5
20260503174530 9 207 3.2 3.2 0.00 0.00 0.00 44 1008.6
20260503174026 9 302 6.4 9.7 0.00 0.00 0.00 41 1008.7
20260503173521 9 210 1.6 1.6 0.00 0.00 0.00 42 1008.7
20260503173017 9 252 4.8 8.0 0.00 0.00 0.00 43 1008.9
20260503172516 10 23 0.0 3.2 0.00 0.00 0.00 42 1008.7
20260503172012 10 291 3.2 3.2 0.00 0.00 0.00 41 1008.5
20260503171509 10 61 3.2 4.8 0.00 0.00 0.00 44 1008.5
20260503171006 9 304 1.6 3.2 0.00 0.00 0.00 45 1008.5
20260503170502 9 139 8.0 14.5 0.00 0.00 0.00 43 1008.6
20260503150855 9 50 4.8 4.8 0.00 0.00 0.00 51 1008.7
20260503150351 10 328 1.6 1.6 0.00 0.00 0.00 48 1008.8
20260503140315 8 47 8.0 9.7 0.00 0.00 0.00 56 1009.3
20260503131244 7 316 1.6 3.2 0.00 0.00 0.00 68 1009.6
20260503130742 7 218 4.8 4.8 0.00 0.00 0.00 66 1009.7
20260503130239 7 325 1.6 3.2 0.00 0.00 0.00 68 1009.7